Regional Weather Roundup
Issued by NWS Newport/Morehead, NC

Current Version | Previous Version | Graphics & Text | Print | Product List | Glossary Off
Versions: 1 2 3 4 5 6 7 8 9 10 11 12 13 14 15 16 17 18 19 20 21 22 23 24 25 26 27 28 29 30 31 32 33 34 35 36 37 38 39 40 41 42 43 44 45 46 47 48 49 50
000 ASUS42 KMHX 131925 RWRMHX WEATHER ROUNDUP FOR EASTERN NORTH CAROLINA NATIONAL WEATHER SERVICE NEWPORT/MOREHEAD CITY NC 200 PM EST WED DEC 13 2017 NOTE: "FAIR" INDICATES FEW OR NO CLOUDS BELOW 12,000 FEET WITH NO SIGNIFICANT WEATHER AND/OR OBSTRUCTIONS TO VISIBILITY NCZ015>017-031-032-045>047-102-103-132000- NORTH COAST CITY SKY/WX TMP DP RH WIND PRES REMARKS EDENTON SUNNY 40 8 26 W13 29.88S ELIZABETH CITY SUNNY 39 12 33 W18G25 29.87F KITTY HAWK CLEAR 36 12 37 W12G18 29.85F MANTEO SUNNY 37 14 39 NW10G18 29.87F $$ NCZ045>047-081-094-103-104-132000- CENTRAL COAST CITY SKY/WX TMP DP RH WIND PRES REMARKS FRISCO SUNNY 39 16 39 W10G18 29.89F $$ NCZ095-097-098-100-101-132000- SOUTHERN COAST CITY SKY/WX TMP DP RH WIND PRES REMARKS BEAUFORT SUNNY 44 11 26 W16G23 29.91F CEDAR ISLAND NOT AVBL JACKSONVILLE SUNNY 43 11 27 W13G21 29.92F PINEY ISLAND N/A N/A N/A N/A W13 29.90F WILMINGTON SUNNY 47 12 24 W10 29.94F $$ NCZ011>013-027>030-043-044-078>080-089-090>093-098-132000- COASTAL PLAIN CITY SKY/WX TMP DP RH WIND PRES REMARKS AHOSKIE SUNNY 37 8 29 CALM 29.88S CLINTON SUNNY 44 14 28 W5 29.93F ELIZABETHTOWN NOT AVBL GOLDSBORO SUNNY 43 8 23 W16 29.90F GREENVILLE SUNNY 41 9 26 W10 29.93S HAVELOCK SUNNY 43 11 27 W17G23 29.92F KENANSVILLE SUNNY 43 10 26 W9G17 29.92F KINSTON SUNNY 43 7 22 W7 29.92F NEW BERN SUNNY 42 13 30 W12 29.92F RICHLANDS SUNNY 44 12 27 W9 29.92F ROCKY MOUNT SUNNY 39 9 29 W13G20 29.90F WASHINGTON SUNNY 41 8 26 W6G16 29.90F WHITEVILLE SUNNY 46 13 26 W7 29.94F $$ AMZ130-135-150-152-154-156-158-170-250-252-270-ANZ085-086-088-633-658-670-132000- MARINE OBSERVATIONS STATION/POSITION TIME TEMP WIND PRES WAVE SWELL AIR SEA DIR/SP/G HT/PER HT/PER (UTC) (F) (DEG/KT/KT) (MB) (FT/S) (FT/S) CHESAPEAKE LIGHT NOT AVBL 64 E VA BEACH 1850 35 58 280/ 21/ 29 1010.5 8/ 7 DUCK 1900 36 54 290/ 17/ 21 1010.5 2 E DUCK 1900 56 N/A 4/ 5 OREGON INLET 1900 36 44 290/ 11/ 15 1011.2 13E OREGON INLT 1848 57 N/A 6/ 7 3/ 8 HATTERAS CG 1900 37 50 290/ 16/ 20 1012.0 DIAMOND BUOY 1910 40 74 290/ 17/ 25 1012.3 CAPE LOOKOUT 1800 290/ 13/ 16 1013.6 BEAUFORT LAB 1900 42 49 290/ 8/ 13 1013.0 30 SE NEW RVR IN 1908 43 62 320/ 12/ 17 1013.7 30 SE NEW RVR IN 1900 63 N/A 5/ 5 27 SE WRIGHTSVLE 1908 44 65 300/ 12/ 19 1013.6 5 SE WRIGHTSVLE 1908 44 57 290/ 10/ 17 1013.4 225 S CAPE HAT 1850 56 75 310/ 16/ 23 1013.1 12/10 11/10 41 SE CHARLESTON 1910 46 74 280/ 6/ 10 1015.2 $$

USA.gov is the U.S. government's official web portal to all federal, state and local government web resources and services.